Wind_Speed
16 16 16 16 15 15 15 15 15 14 14 14 14 14 14 14 14 14 15 15 15 15 16 16 15 15 14 14 15 15 15 15 16 16 16 16 16 15
17 17 17 17 17 17 16 17 17 16 15 15 15 15 15 15 15 16 16 16 16 16 16 16 15 15 15 15 15 16 16 16 16 16 16 16 15 15
17 17 18 18 19 18 18 18 18 18 17 17 17 17 17 16 16 17 16 16 16 17 17 17 17 16 16 16 16 16 17 16 16 16 16 15 15 16
18 19 19 19 20 20 19 19 19 19 18 18 18 18 18 18 18 18 18 18 18 18 18 18 18 17 17 17 17 17 17 17 16 15 16 16 15 16
20 20 21 21 21 21 20 20 20 20 20 20 20 20 19 19 19 19 18 18 18 18 19 19 19 18 18 19 18 18 18 17 17 16 16 16 16 16
22 22 22 22 22 21 21 21 21 21 21 21 21 21 21 20 19 19 19 18 18 19 19 20 20 20 20 19 19 19 19 18 18 18 17 17 18 18
23 24 24 23 23 22 22 22 22 22 22 22 22 22 21 21 20 20 19 19 19 20 20 20 20 20 20 20 20 20 20 19 19 19 19 18 18 19
24 25 25 25 24 23 23 23 23 23 23 22 22 22 22 21 21 20 20 20 20 20 21 21 21 20 21 21 20 20 21 20 20 20 20 20 20 20
25 25 26 25 24 24 24 23 24 24 23 23 23 23 23 22 22 22 22 22 21 21 21 21 21 21 21 20 20 21 21 20 20 21 21 21 21 21
25 25 25 26 26 26 25 24 24 24 24 24 24 23 23 23 23 23 23 23 23 23 23 22 22 22 21 21 20 20 21 21 22 22 22 22 21 21
26 26 26 26 26 26 26 25 25 25 25 25 24 24 24 24 24 24 24 24 24 24 24 24 23 23 23 22 22 22 23 23 23 23 23 23 23 23
26 26 26 26 26 26 26 26 26 26 26 26 26 25 26 26 26 26 26 26 26 25 25 25 25 25 24 24 24 24 24 24 24 24 24 24 25 25
27 27 26 26 27 27 27 27 27 27 27 28 27 27 27 27 27 28 28 28 27 27 27 26 25 26 25 25 25 26 26 26 25 25 25 24 25 25
27 27 27 27 27 27 27 28 28 28 28 28 28 28 28 29 29 29 29 29 29 29 29 27 26 26 26 26 26 27 27 27 27 26 26 26 26 26
28 28 28 28 28 28 28 29 29 29 29 29 29 29 29 29 30 30 30 29 29 30 30 29 29 28 28 27 28 28 28 28 28 27 27 26 26 26
28 29 29 29 29 28 29 29 29 29 29 29 29 29 29 30 30 29 29 30 29 29 30 30 29 29 29 29 29 28 28 28 28 28 28 28 27 26
30 29 29 29 29 29 29 29 29 29 29 29 29 29 29 30 30 30 30 30 30 30 30 30 29 29 29 29 29 29 29 28 28 29 29 29 28 28
30 30 29 29 29 29 29 29 29 29 30 30 30 30 30 30 31 31 31 31 31 31 30 30 30 30 30 30 30 30 30 29 30 30 30 29 28 28
30 30 29 28 29 29 29 29 29 30 30 30 31 31 31 31 31 31 31 31 31 31 31 31 31 31 31 31 30 30 30 30 30 30 30 29 29 29
30 29 28 29 29 30 30 30 30 30 31 31 31 31 31 32 32 32 32 32 32 32 32 32 31 31 32 31 31 31 31 31 30 30 30 30 30 30
31 30 30 30 30 30 30 31 31 31 32 32 32 32 32 32 32 32 31 31 32 32 32 32 32 31 31 31 31 31 32 31 31 30 30 30 30 30
32 32 31 32 31 31 31 31 32 32 32 33 33 32 32 32 32 31 31 31 31 31 31 32 32 32 32 31 31 31 32 32 32 31 31 31 31 31
32 33 33 33 33 32 32 32 33 33 33 33 33 33 32 32 32 32 32 32 32 32 32 32 32 33 32 32 32 32 32 32 33 33 32 33 32 32
Wind_Direction
276 277 278 278 278 278 276 275 276 275 275 276 276 274 271 269 267 268 268 268 268 268 269 270 270 271 274 279 279 280 283 284 283 284 283 283 282 278
274 276 278 278 276 276 276 276 276 277 275 273 273 273 272 270 268 268 272 272 271 269 268 268 270 274 277 280 281 282 284 285 284 284 284 283 279 276
275 276 276 277 277 275 275 275 275 276 275 274 273 272 273 272 269 269 271 272 271 270 269 271 273 274 276 279 282 284 283 284 286 283 279 279 276 275
277 277 276 276 277 275 274 274 274 274 274 273 272 272 272 271 269 268 270 271 271 271 271 272 274 275 277 279 280 281 282 283 284 285 279 278 278 277
279 278 277 277 277 275 274 275 274 273 273 273 273 271 273 272 270 270 270 271 271 271 270 272 274 277 279 279 280 279 280 281 280 282 280 277 277 277
278 278 278 277 277 276 276 274 273 273 272 272 272 272 273 272 272 270 269 270 272 273 273 272 274 276 279 280 280 279 279 280 280 279 279 273 275 277
277 278 277 276 276 275 275 275 274 273 272 271 271 273 273 272 272 270 268 270 271 273 274 275 277 278 280 280 281 280 280 279 279 279 279 276 275 277
278 277 277 276 275 274 274 274 273 272 272 272 272 272 271 270 270 270 270 271 272 274 276 277 276 277 279 280 280 280 279 279 278 278 278 277 274 275
277 276 276 275 274 274 273 274 274 272 271 272 272 271 268 268 269 270 271 273 274 274 275 275 275 275 278 279 279 279 279 279 280 279 278 278 277 278
277 276 275 274 273 272 271 272 273 273 271 272 272 271 268 268 269 269 270 272 274 275 274 273 273 274 276 276 276 278 278 279 281 281 280 280 281 282
276 276 274 273 273 273 272 272 272 272 273 274 273 270 268 269 269 269 270 271 273 274 275 274 273 272 274 274 275 277 279 280 281 282 282 281 280 281
275 275 274 274 273 273 273 273 272 272 272 273 273 271 269 269 270 270 270 271 272 272 274 274 273 272 273 273 274 277 279 279 280 282 283 282 281 280
275 274 274 274 273 272 272 273 272 272 272 272 272 271 270 269 270 271 270 270 271 271 272 273 274 273 273 274 274 276 278 278 279 280 281 282 282 281
276 275 274 274 274 273 272 273 273 272 272 272 272 271 270 269 270 271 271 270 270 271 271 272 274 273 273 274 275 275 277 278 277 278 279 280 281 281
277 276 275 275 274 274 274 274 273 273 272 271 271 270 269 269 270 271 270 270 270 270 270 271 273 273 273 275 276 276 276 276 276 276 277 278 279 280
278 277 276 275 274 273 273 273 273 273 272 271 271 270 269 270 271 271 270 270 270 271 271 271 271 271 272 273 275 276 275 275 275 275 276 277 277 279
276 277 276 274 274 273 273 273 273 272 271 271 271 271 270 269 270 270 270 270 269 269 270 271 271 271 271 273 274 275 275 275 275 275 276 277 277 277
275 276 276 274 274 274 274 273 272 271 271 271 272 271 270 269 270 270 271 270 269 269 269 270 271 271 271 272 274 274 274 274 274 275 276 276 275 275
275 276 275 274 274 274 274 273 272 271 271 271 272 272 271 270 269 270 270 269 269 269 269 269 270 270 270 271 273 273 273 273 274 274 275 275 274 275
275 276 276 276 275 274 274 273 272 271 271 272 273 272 272 271 270 270 270 270 269 269 269 269 270 271 270 271 272 272 272 273 273 273 274 274 273 274
276 276 276 276 275 275 274 272 272 272 273 273 273 273 273 272 271 271 271 270 270 269 269 269 270 271 271 272 272 272 273 273 273 273 273 272 272 274
276 276 275 275 274 273 273 272 272 272 272 272 272 272 272 271 270 270 270 270 270 269 269 269 269 269 270 272 273 272 272 273 274 274 273 273 273 274
275 275 275 275 274 274 273 272 271 271 271 271 270 271 271 270 269 269 270 270 270 269 269 269 269 270 270 272 273 273 272 272 274 274 273 273 273 274
Height
5796 5796 5796 5796 5795 5795 5795 5795 5795 5794 5794 5793 5792 5792 5791 5791 5791 5791 5791 5791 5791 5791 5791 5791 5791 5790 5790 5790 5789 5788 5787 5787 5786 5785 5784 5783 5782 5782
5792 5792 5791 5791 5791 5790 5790 5790 5790 5790 5789 5789 5788 5788 5788 5787 5787 5787 5787 5787 5787 5787 5787 5787 5787 5786 5786 5785 5785 5784 5783 5782 5781 5780 5779 5778 5777 5777
5787 5787 5787 5786 5786 5785 5785 5785 5784 5784 5784 5784 5784 5783 5783 5783 5783 5782 5782 5782 5782 5782 5782 5782 5782 5782 5782 5781 5780 5779 5778 5777 5777 5775 5774 5773 5772 5772
5782 5782 5782 5781 5780 5780 5780 5779 5779 5779 5779 5779 5779 5779 5778 5778 5778 5777 5777 5777 5777 5777 5777 5777 5777 5777 5777 5776 5775 5774 5773 5772 5772 5770 5769 5768 5767 5767
5777 5776 5776 5775 5775 5774 5774 5774 5773 5773 5773 5773 5773 5773 5773 5773 5772 5772 5772 5772 5772 5771 5771 5772 5772 5772 5771 5771 5770 5769 5768 5767 5766 5765 5764 5763 5763 5762
5771 5770 5770 5769 5769 5768 5768 5768 5768 5768 5768 5768 5768 5767 5767 5767 5766 5766 5766 5767 5767 5766 5766 5766 5766 5766 5765 5765 5764 5763 5762 5761 5761 5760 5759 5758 5758 5756
5764 5764 5763 5763 5762 5762 5762 5761 5761 5761 5761 5761 5761 5761 5761 5761 5761 5761 5761 5761 5761 5761 5760 5760 5760 5760 5759 5759 5758 5757 5756 5755 5755 5754 5753 5753 5752 5751
5758 5757 5756 5756 5755 5755 5755 5755 5755 5755 5755 5755 5755 5755 5755 5755 5755 5755 5755 5755 5755 5756 5755 5754 5754 5754 5753 5753 5752 5751 5750 5749 5749 5748 5747 5747 5745 5744
5750 5750 5749 5749 5748 5748 5748 5748 5748 5747 5748 5748 5748 5748 5748 5748 5749 5749 5749 5749 5749 5749 5748 5748 5748 5748 5747 5746 5746 5745 5744 5743 5742 5741 5741 5740 5739 5738
5743 5742 5742 5741 5741 5741 5741 5741 5741 5741 5740 5741 5741 5741 5741 5742 5742 5742 5742 5742 5742 5742 5741 5742 5741 5741 5740 5740 5739 5738 5737 5736 5735 5735 5734 5733 5732 5731
5735 5734 5734 5734 5734 5733 5733 5734 5734 5733 5733 5733 5733 5733 5733 5734 5734 5735 5735 5734 5735 5734 5734 5734 5734 5733 5733 5733 5732 5731 5730 5729 5728 5727 5726 5725 5724 5724
5727 5726 5726 5726 5726 5726 5726 5726 5726 5726 5726 5725 5725 5725 5725 5726 5726 5726 5726 5726 5726 5726 5726 5726 5725 5725 5725 5725 5725 5724 5723 5722 5721 5720 5718 5717 5716 5715
5719 5718 5718 5718 5718 5718 5718 5718 5718 5718 5717 5717 5717 5717 5717 5717 5717 5717 5717 5717 5718 5718 5718 5717 5717 5716 5716 5717 5716 5715 5714 5714 5713 5712 5710 5709 5708 5707
5711 5710 5710 5710 5709 5709 5709 5709 5709 5709 5709 5709 5709 5709 5708 5708 5708 5708 5707 5708 5708 5708 5708 5708 5708 5708 5707 5707 5707 5707 5706 5705 5704 5703 5702 5701 5700 5699
5702 5702 5701 5701 5700 5700 5700 5700 5699 5699 5700 5700 5700 5699 5699 5699 5699 5699 5698 5698 5698 5698 5698 5698 5699 5698 5698 5698 5698 5697 5696 5695 5694 5694 5693 5692 5691 5690
5693 5693 5692 5692 5691 5691 5691 5690 5690 5690 5690 5690 5690 5690 5689 5689 5689 5689 5689 5689 5689 5688 5688 5688 5688 5688 5688 5688 5688 5687 5687 5686 5686 5685 5684 5683 5682 5681
5684 5683 5683 5683 5682 5682 5681 5681 5681 5681 5681 5680 5680 5680 5680 5680 5680 5679 5679 5679 5679 5679 5679 5679 5679 5678 5678 5678 5678 5678 5677 5677 5676 5675 5675 5675 5673 5672
5674 5674 5674 5673 5673 5672 5672 5672 5671 5671 5671 5671 5671 5671 5670 5670 5670 5670 5669 5669 5669 5669 5669 5669 5669 5669 5669 5669 5669 5668 5668 5667 5667 5666 5665 5665 5665 5664
5665 5664 5664 5664 5663 5663 5662 5662 5662 5662 5662 5661 5661 5661 5661 5660 5660 5660 5659 5659 5659 5659 5659 5659 5659 5659 5660 5660 5660 5658 5658 5658 5657 5656 5656 5656 5655 5655
5655 5655 5655 5654 5654 5653 5653 5653 5652 5652 5652 5651 5651 5651 5651 5650 5650 5650 5649 5649 5649 5649 5649 5649 5649 5649 5649 5650 5649 5649 5648 5647 5647 5647 5647 5646 5645 5645
5646 5645 5645 5645 5644 5644 5643 5643 5643 5642 5642 5641 5641 5641 5640 5640 5640 5640 5639 5639 5639 5639 5639 5639 5639 5639 5638 5639 5639 5639 5638 5637 5637 5637 5636 5636 5636 5635
5635 5635 5635 5634 5634 5633 5633 5633 5632 5632 5631 5631 5631 5630 5630 5630 5629 5629 5629 5629 5629 5629 5629 5629 5628 5628 5628 5629 5629 5629 5628 5627 5626 5626 5625 5626 5625 5626
5625 5624 5624 5624 5623 5623 5622 5622 5621 5621 5621 5620 5620 5620 5619 5619 5619 5619 5619 5619 5618 5618 5618 5618 5618 5618 5618 5618 5618 5618 5618 5617 5617 5616 5616 5615 5615 5614